Time,TemperatureF,DewpointF,PressureIn,WindDirection,WindDirectionDegrees,WindSpeedMPH,WindSpeedGustMPH,Humidity,HourlyPrecipIn,Conditions,Clouds,dailyrainin,SoftwareType,DateUTC
2018-01-20 00:00:00,29.0,23.3,29.89,NE,39,1.0,3.0,79,0.00,,,0.00,VWS V12.08,2018-01-20 05:00:00,
2018-01-20 00:13:00,29.5,23.5,29.88,NE,53,0.0,0.0,78,0.00,,,0.00,VWS V12.08,2018-01-20 05:13:00,
2018-01-20 00:28:00,29.6,23.6,29.87,East,92,0.0,3.0,78,0.00,,,0.00,VWS V12.08,2018-01-20 05:28:00,
2018-01-20 00:43:00,29.6,23.9,29.87,East,92,0.0,0.0,79,0.00,,,0.00,VWS V12.08,2018-01-20 05:43:00,
2018-01-20 00:58:00,29.5,24.1,29.86,East,96,0.0,1.0,80,0.00,,,0.00,VWS V12.08,2018-01-20 05:58:00,
2018-01-20 01:13:00,29.2,24.1,29.85,SW,227,0.0,2.0,81,0.00,,,0.00,VWS V12.08,2018-01-20 06:13:00,
2018-01-20 01:28:00,28.9,24.1,29.85,SW,227,0.0,2.0,82,0.00,,,0.00,VWS V12.08,2018-01-20 06:28:00,
2018-01-20 01:43:00,28.6,24.4,29.85,SW,227,0.0,1.0,84,0.00,,,0.00,VWS V12.08,2018-01-20 06:43:00,
2018-01-20 01:58:00,28.5,25.4,29.84,SW,229,0.0,3.0,88,0.00,,,0.00,VWS V12.08,2018-01-20 06:58:00,
2018-01-20 02:13:00,28.9,25.8,29.83,WSW,242,0.0,2.0,88,0.00,,,0.00,VWS V12.08,2018-01-20 07:13:00,
2018-01-20 02:29:00,29.3,25.9,29.83,SSW,212,0.0,2.0,87,0.00,,,0.00,VWS V12.08,2018-01-20 07:29:00,
2018-01-20 02:43:00,30.0,26.6,29.81,SSW,203,0.0,3.0,87,0.00,,,0.00,VWS V12.08,2018-01-20 07:43:00,
2018-01-20 02:58:00,30.8,27.4,29.82,WSW,244,0.0,4.0,87,0.00,,,0.00,VWS V12.08,2018-01-20 07:58:00,
2018-01-20 03:14:00,31.9,27.9,29.82,NE,46,0.0,2.0,85,0.00,,,0.00,VWS V12.08,2018-01-20 08:14:00,
2018-01-20 03:28:00,32.5,28.5,29.81,SSW,212,0.0,5.0,85,0.00,,,0.00,VWS V12.08,2018-01-20 08:28:00,
2018-01-20 03:44:00,33.0,29.3,29.80,NE,51,0.0,5.0,86,0.00,,,0.00,VWS V12.08,2018-01-20 08:44:00,
2018-01-20 03:58:00,33.3,29.9,29.80,West,263,0.0,6.0,87,0.00,,,0.00,VWS V12.08,2018-01-20 08:58:00,
2018-01-20 04:14:00,33.7,30.5,29.80,NE,53,0.0,4.0,88,0.00,,,0.00,VWS V12.08,2018-01-20 09:14:00,
2018-01-20 04:29:00,34.1,31.2,29.79,NE,43,0.0,7.0,89,0.00,,,0.00,VWS V12.08,2018-01-20 09:29:00,
2018-01-20 04:44:00,34.5,31.9,29.78,East,89,1.0,3.0,90,0.00,,,0.00,VWS V12.08,2018-01-20 09:44:00,
2018-01-20 04:59:00,34.8,32.2,29.78,ENE,70,0.0,3.0,90,0.00,,,0.00,VWS V12.08,2018-01-20 09:59:00,
2018-01-20 05:14:00,35.2,32.3,29.78,NE,42,1.0,3.0,89,0.00,,,0.00,VWS V12.08,2018-01-20 10:14:00,
2018-01-20 05:29:00,35.4,31.9,29.76,ENE,61,0.0,4.0,87,0.00,,,0.00,VWS V12.08,2018-01-20 10:29:00,
2018-01-20 05:44:00,35.7,31.9,29.75,NNE,27,2.0,10.0,86,0.00,,,0.00,VWS V12.08,2018-01-20 10:44:00,
2018-01-20 05:59:00,36.1,31.7,29.75,East,81,2.0,10.0,84,0.00,,,0.00,VWS V12.08,2018-01-20 10:59:00,
2018-01-20 06:14:00,36.7,32.0,29.74,SSE,155,1.0,6.0,83,0.00,,,0.00,VWS V12.08,2018-01-20 11:14:00,
2018-01-20 06:29:00,37.2,32.5,29.73,North,10,3.0,6.0,83,0.00,,,0.00,VWS V12.08,2018-01-20 11:29:00,
2018-01-20 06:44:00,37.7,33.0,29.72,WSW,250,4.0,7.0,83,0.00,,,0.00,VWS V12.08,2018-01-20 11:44:00,
2018-01-20 06:59:00,37.9,32.9,29.72,NNE,30,1.0,7.0,82,0.00,,,0.00,VWS V12.08,2018-01-20 11:59:00,
2018-01-20 07:14:00,38.1,32.8,29.71,West,270,8.0,12.0,81,0.00,,,0.00,VWS V12.08,2018-01-20 12:14:00,
2018-01-20 07:30:00,38.4,32.8,29.71,WNW,289,1.0,12.0,80,0.00,,,0.00,VWS V12.08,2018-01-20 12:30:00,
2018-01-20 07:44:00,38.8,32.9,29.70,West,265,4.0,8.0,79,0.00,,,0.00,VWS V12.08,2018-01-20 12:44:00,
2018-01-20 07:59:00,39.3,33.0,29.70,West,263,4.0,13.0,78,0.00,,,0.00,VWS V12.08,2018-01-20 12:59:00,
2018-01-20 08:13:00,40.0,33.4,29.70,NNE,30,1.0,11.0,77,0.00,,,0.00,VWS V12.08,2018-01-20 13:13:00,
2018-01-20 08:28:00,40.5,33.2,29.70,NNE,29,2.0,11.0,75,0.00,,,0.00,VWS V12.08,2018-01-20 13:28:00,
2018-01-20 08:44:00,41.1,33.5,29.70,NE,40,3.0,10.0,74,0.00,,,0.00,VWS V12.08,2018-01-20 13:44:00,
2018-01-20 08:58:00,41.4,33.4,29.69,NNE,21,3.0,10.0,73,0.00,,,0.00,VWS V12.08,2018-01-20 13:58:00,
2018-01-20 09:13:00,42.3,32.1,29.69,NNE,26,2.0,13.0,67,0.01,,,0.01,VWS V12.08,2018-01-20 14:13:00,
2018-01-20 09:28:00,43.0,31.3,29.69,North,5,2.0,14.0,63,0.01,,,0.01,VWS V12.08,2018-01-20 14:28:00,
2018-01-20 09:43:00,43.5,31.8,29.69,NNE,24,2.0,13.0,63,0.01,,,0.01,VWS V12.08,2018-01-20 14:43:00,
2018-01-20 09:58:00,43.9,32.1,29.70,NE,44,3.0,13.0,63,0.01,,,0.01,VWS V12.08,2018-01-20 14:58:00,
2018-01-20 10:13:00,44.5,31.9,29.69,East,80,3.0,11.0,61,0.01,,,0.01,VWS V12.08,2018-01-20 15:13:00,
2018-01-20 10:28:00,45.3,31.4,29.68,NE,43,4.0,11.0,58,0.01,,,0.01,VWS V12.08,2018-01-20 15:28:00,
2018-01-20 10:43:00,46.0,31.6,29.67,North,9,5.0,12.0,57,0.00,,,0.01,VWS V12.08,2018-01-20 15:43:00,
2018-01-20 10:58:00,46.2,32.2,29.67,NW,306,2.0,12.0,58,0.00,,,0.01,VWS V12.08,2018-01-20 15:58:00,
2018-01-20 11:13:00,45.9,31.5,29.66,NNE,27,2.0,9.0,57,0.00,,,0.01,VWS V12.08,2018-01-20 16:13:00,
2018-01-20 11:28:00,45.5,32.0,29.65,North,350,1.0,10.0,59,0.00,,,0.01,VWS V12.08,2018-01-20 16:28:00,
2018-01-20 11:43:00,46.3,32.3,29.65,NNE,28,3.0,6.0,58,0.00,,,0.01,VWS V12.08,2018-01-20 16:43:00,
2018-01-20 11:58:00,46.5,32.1,29.65,WSW,249,0.0,12.0,57,0.00,,,0.01,VWS V12.08,2018-01-20 16:58:00,
2018-01-20 12:13:00,47.6,33.1,29.66,ESE,103,2.0,5.0,57,0.00,,,0.01,VWS V12.08,2018-01-20 17:13:00,
2018-01-20 12:28:00,48.6,33.2,29.67,NE,34,2.0,5.0,55,0.00,,,0.01,VWS V12.08,2018-01-20 17:28:00,
2018-01-20 12:43:00,49.5,32.1,29.65,ESE,120,0.0,8.0,51,0.00,,,0.01,VWS V12.08,2018-01-20 17:43:00,
2018-01-20 12:58:00,49.6,31.7,29.66,NE,51,2.0,10.0,50,0.00,,,0.01,VWS V12.08,2018-01-20 17:58:00,
2018-01-20 13:14:00,48.6,31.8,29.66,NNE,12,2.0,5.0,52,0.00,,,0.01,VWS V12.08,2018-01-20 18:14:00,
2018-01-20 13:28:00,47.9,32.5,29.66,North,9,0.0,5.0,55,0.00,,,0.01,VWS V12.08,2018-01-20 18:28:00,
2018-01-20 13:44:00,46.6,32.6,29.66,NNE,30,1.0,5.0,58,0.00,,,0.01,VWS V12.08,2018-01-20 18:44:00,
2018-01-20 13:59:00,46.4,32.9,29.66,East,89,1.0,5.0,59,0.00,,,0.01,VWS V12.08,2018-01-20 18:59:00,
2018-01-20 14:14:00,47.0,33.0,29.67,NNE,13,1.0,5.0,58,0.00,,,0.01,VWS V12.08,2018-01-20 19:14:00,
2018-01-20 14:29:00,47.8,33.3,29.68,ESE,105,2.0,8.0,57,0.00,,,0.01,VWS V12.08,2018-01-20 19:29:00,
2018-01-20 14:44:00,48.7,33.3,29.68,NNE,33,1.0,4.0,55,0.00,,,0.01,VWS V12.08,2018-01-20 19:44:00,
2018-01-20 14:59:00,49.6,32.7,29.69,NNE,24,0.0,8.0,52,0.00,,,0.01,VWS V12.08,2018-01-20 19:59:00,
2018-01-20 15:13:00,50.0,32.6,29.69,NNE,26,2.0,6.0,51,0.00,,,0.01,VWS V12.08,2018-01-20 20:13:00,
2018-01-20 15:28:00,49.8,32.4,29.70,NE,53,1.0,8.0,51,0.00,,,0.01,VWS V12.08,2018-01-20 20:28:00,
2018-01-20 15:30:00,49.8,32.4,29.70,NE,53,1.0,8.0,51,0.00,,,0.01,VWS V12.08,2018-01-20 20:30:00,
2018-01-20 15:43:00,49.5,32.6,29.71,ENE,74,0.0,5.0,52,0.00,,,0.01,VWS V12.08,2018-01-20 20:43:00,
2018-01-20 15:58:00,49.2,32.3,29.72,NE,53,1.0,6.0,52,0.00,,,0.01,VWS V12.08,2018-01-20 20:58:00,
2018-01-20 16:13:00,48.6,32.7,29.73,North,355,0.0,4.0,54,0.00,,,0.01,VWS V12.08,2018-01-20 21:13:00,
2018-01-20 16:28:00,47.8,32.4,29.74,NNW,340,0.0,4.0,55,0.00,,,0.01,VWS V12.08,2018-01-20 21:28:00,
2018-01-20 16:43:00,46.8,32.4,29.75,NNW,340,1.0,2.0,57,0.00,,,0.01,VWS V12.08,2018-01-20 21:43:00,
2018-01-20 16:58:00,45.5,32.4,29.75,NNW,342,0.0,2.0,60,0.00,,,0.01,VWS V12.08,2018-01-20 21:58:00,
2018-01-20 17:13:00,44.3,32.1,29.76,NNW,344,0.0,3.0,62,0.00,,,0.01,VWS V12.08,2018-01-20 22:13:00,
2018-01-20 17:28:00,43.5,32.2,29.77,NNW,344,0.0,3.0,64,0.00,,,0.01,VWS V12.08,2018-01-20 22:28:00,
2018-01-20 17:43:00,42.8,31.9,29.78,NE,54,0.0,3.0,65,0.00,,,0.01,VWS V12.08,2018-01-20 22:43:00,
2018-01-20 17:58:00,42.4,31.9,29.79,NE,39,1.0,3.0,66,0.00,,,0.01,VWS V12.08,2018-01-20 22:58:00,
2018-01-20 18:13:00,42.1,31.6,29.80,NE,39,1.0,3.0,66,0.00,,,0.01,VWS V12.08,2018-01-20 23:13:00,
2018-01-20 18:28:00,42.1,31.6,29.80,NNE,31,0.0,3.0,66,0.00,,,0.01,VWS V12.08,2018-01-20 23:28:00,
2018-01-20 18:43:00,42.7,31.0,29.81,East,88,0.0,4.0,63,0.00,,,0.01,VWS V12.08,2018-01-20 23:43:00,
2018-01-20 18:58:00,43.1,30.6,29.81,NNE,17,3.0,8.0,61,0.00,,,0.01,VWS V12.08,2018-01-20 23:58:00,
2018-01-20 19:13:00,43.6,30.6,29.82,ENE,59,1.0,6.0,60,0.00,,,0.01,VWS V12.08,2018-01-21 00:13:00,
2018-01-20 19:28:00,44.1,30.3,29.83,NNE,32,3.0,8.0,58,0.00,,,0.01,VWS V12.08,2018-01-21 00:28:00,
2018-01-20 19:43:00,44.1,30.3,29.83,NNE,27,3.0,5.0,58,0.00,,,0.01,VWS V12.08,2018-01-21 00:43:00,
2018-01-20 19:58:00,43.9,30.5,29.84,NNE,18,3.0,9.0,59,0.00,,,0.01,VWS V12.08,2018-01-21 00:58:00,
2018-01-20 20:13:00,43.7,30.3,29.85,ESE,112,2.0,9.0,59,0.00,,,0.01,VWS V12.08,2018-01-21 01:13:00,
2018-01-20 20:28:00,43.4,30.0,29.86,NNE,29,2.0,9.0,59,0.00,,,0.01,VWS V12.08,2018-01-21 01:28:00,
2018-01-20 20:44:00,43.3,30.0,29.86,NNE,24,1.0,7.0,59,0.00,,,0.01,VWS V12.08,2018-01-21 01:44:00,
2018-01-20 20:59:00,43.4,30.5,29.87,NE,43,1.0,7.0,60,0.00,,,0.01,VWS V12.08,2018-01-21 01:59:00,
2018-01-20 21:14:00,43.1,30.2,29.88,NE,51,3.0,6.0,60,0.00,,,0.01,VWS V12.08,2018-01-21 02:14:00,
2018-01-20 21:29:00,43.0,30.5,29.88,North,5,3.0,6.0,61,0.00,,,0.01,VWS V12.08,2018-01-21 02:29:00,
2018-01-20 21:44:00,42.9,30.4,29.89,NNE,33,2.0,6.0,61,0.00,,,0.01,VWS V12.08,2018-01-21 02:44:00,
2018-01-20 21:59:00,42.7,30.2,29.89,ESE,106,2.0,6.0,61,0.00,,,0.01,VWS V12.08,2018-01-21 02:59:00,
2018-01-20 22:13:00,42.5,30.4,29.89,ESE,114,3.0,9.0,62,0.00,,,0.01,VWS V12.08,2018-01-21 03:13:00,
2018-01-20 22:28:00,42.3,30.2,29.90,NE,42,1.0,9.0,62,0.00,,,0.01,VWS V12.08,2018-01-21 03:28:00,
2018-01-20 22:43:00,41.9,30.2,29.90,NE,35,1.0,3.0,63,0.00,,,0.01,VWS V12.08,2018-01-21 03:43:00,
2018-01-20 22:58:00,41.5,30.2,29.90,ENE,76,0.0,4.0,64,0.00,,,0.01,VWS V12.08,2018-01-21 03:58:00,
2018-01-20 23:13:00,40.7,29.9,29.91,ENE,76,0.0,0.0,65,0.00,,,0.01,VWS V12.08,2018-01-21 04:13:00,
2018-01-20 23:28:00,39.7,29.7,29.90,ENE,76,0.0,1.0,67,0.00,,,0.01,VWS V12.08,2018-01-21 04:28:00,